Simultaneous Nadir Overpasses (SNOs) Predictions

Prediction of SNOs between LANDSAT-8 and METOP-B Satellite Orbit:

Table of predicted SNOs for the next 14.0 days since TLE Epoch: 4/7/2014
Index Date (LANDSAT-8) Time (LANDSAT-8) Lat,Lon (LANDSAT-8) SZA (LANDSAT-8 ) Date (METOP-B) Time (METOP-B) Lat,Lon (METOP-B) SZA (METOP-B ) Distance(km) Time Diff (sec)
1 04/09/2014 02:16:24 -81.06, 4.18 104.56 04/09/2014 02:15:12 -81.05, 4.04 104.61 2.60 72
2 04/09/2014 03:05:49 81.08, 172.15 75.48 04/09/2014 03:05:50 81.08, 172.15 75.48 0.10 1
3 04/09/2014 03:54:58 -81.47, -13.44 103.55 04/09/2014 03:56:12 -81.29, -13.12 103.61 20.59 74
4 04/11/2014 21:50:36 -81.05, 70.51 105.59 04/11/2014 21:49:33 -81.04, 70.36 105.64 2.58 63
5 04/11/2014 22:40:01 81.07,-121.54 74.45 04/11/2014 22:40:11 81.07,-121.57 74.45 0.71 10
6
